(82503) = 1997 QZ3 = 2001 OU46

Discovered at Anderson Mesa on 2001-07-16 by LONEOS.

Orbit

Orbit type: Main Belt

Note: WebGL enabled browser required.

epoch2024-03-31.0
epoch JD2460400.5
perihelion date2025-07-28.19609
perihelion JD2460884.69609
argument of perihelion (°)23.11656
ascending node (°)221.59837
inclination (°)3.96932
eccentricity0.0667770
perihelion distance (AU)2.3927525
Tisserand w.r.t. Jupiter3.4
ΔV w.r.t. Earth (km/sec)9.7
semimajor axis (AU)2.5639663
mean anomaly (°)243.75972
mean daily motion (°/day)0.24006860
aphelion distance (AU)2.735
period (years)4.11
P-vector [x]-0.42774748
P-vector [y]-0.83974586
P-vector [z]-0.33445326
Q-vector [x]0.90272922
Q-vector [y]-0.41568753
Q-vector [z]-0.11083242
absolute magnitude15.78
phase slope0.15
uncertainty0
referenceMPEC 2024-C163
observations used1039
oppositions17
arc length (days)9633
first opposition used1997
last opposition used2024
residual rms (arc-secs)0.73
perturbers coarse indicatorM-v
perturbers precise indicator003Ek
first observation date used1997-08-30.0
last observation date used2024-01-14.0
computer nameMPCLINUX
JD of orbit computation2456966.800630
perihelion JD uncertainty (days)2.6078E-04
argument of perihelion uncertainty (°)8.5571E-05
ascending node uncertainty (°)6.3638E-05
inclination uncertainty (°)5.3592E-06
eccentricity uncertainty 4.4089E-08
perihelion distance uncertainty (AU)1.1609E-07
Minimum Orbit Intersection Distances (in AU)
for orbit epoch: 2460200.5, reference: E2024-CG3
Mercury1.93068
Venus1.66904
Earth1.38078
Mars0.82107
Jupiter2.25736
Saturn6.33014
Uranus15.9102
Neptune27.1291

Observations

1062 total observations over interval: 1997 08 30.91744 – 2024 01 14.439794
These data are available for download (format description).

Date (UT) J2000 RA J2000 Dec Magn Location Ref
1997 08 30.91744 21 23 30.36 -08 46 01.7 20.4 V 910 – Caussols-ODAS MPC 30622
1997 08 30.94175 21 23 29.26 -08 46 09.0 20.1 V 910 – Caussols-ODAS MPC 30622
1997 08 30.96814 21 23 28.08 -08 46 16.8 20.0 V 910 – Caussols-ODAS MPC 30622
1997 08 31.90064 21 22 47.87 -08 50 58.5 20.7 V 910 – Caussols-ODAS MPC 30622
1997 08 31.92459 21 22 46.79 -08 51 05.9 20.1 V 910 – Caussols-ODAS MPC 30622
1997 08 31.94958 21 22 45.69 -08 51 13.4 20.2 V 910 – Caussols-ODAS MPC 30622
2001 07 16.36413 20 57 55.06 -10 26 29.5 19.1 R 699 – Lowell Observatory-LONEOS MPS 32497
2001 07 16.38056 20 57 54.26 -10 26 30.7   699 – Lowell Observatory-LONEOS MPS 32497
2001 07 16.39703 20 57 53.46 -10 26 34.2   699 – Lowell Observatory-LONEOS MPS 32497
2001 07 16.41351 20 57 52.71 -10 26 35.1   699 – Lowell Observatory-LONEOS MPS 32497
2001 07 19.51418 20 55 24.78 -10 33 34.2 20.2   608 – Haleakala-AMOS MPS 32497
2001 07 19.52496 20 55 24.18 -10 33 35.3 19.7   608 – Haleakala-AMOS MPS 32497
2001 07 19.53537 20 55 23.64 -10 33 35.1 19.9   608 – Haleakala-AMOS MPS 32497
2001 07 28.35313 20 47 47.35 -10 59 08.5 19.6   608 – Haleakala-AMOS MPS 32497
2001 07 28.36369 20 47 46.74 -10 59 11.1 19.6   608 – Haleakala-AMOS MPS 32497
2001 07 28.37455 20 47 46.19 -10 59 13.6 20.1   608 – Haleakala-AMOS MPS 32497
2002 11 01.48870 04 03 54.63 +19 27 44.2 19.8 R 644 – Palomar Mountain/NEAT MPS 71343
2002 11 01.50150 04 03 54.05 +19 27 40.7 19.7 R 644 – Palomar Mountain/NEAT MPS 71343
2002 11 06.33370 03 59 55.02 +19 08 54.4 19.8   704 – Lincoln Laboratory ETS, New Mexico MPS 81424
2002 11 06.35049 03 59 54.10 +19 08 49.9 19.6   704 – Lincoln Laboratory ETS, New Mexico MPS 81424
2002 11 06.38409 03 59 52.22 +19 08 42.8 19.9   704 – Lincoln Laboratory ETS, New Mexico MPS 81424
2002 11 13.46478 03 53 24.87 +18 39 00.0 19.4 R 644 – Palomar Mountain/NEAT MPS 71343
2002 11 13.48662 03 53 23.58 +18 38 54.2 19.8 R 644 – Palomar Mountain/NEAT MPS 71343
2002 11 13.50904 03 53 22.31 +18 38 48.2 19.2 R 644 – Palomar Mountain/NEAT MPS 71343
2002 11 23.30491 03 43 54.22 +17 55 32.0 19.5 R 644 – Palomar Mountain/NEAT MPS 71343
2002 11 23.32642 03 43 52.94 +17 55 26.4 18.9 R 644 – Palomar Mountain/NEAT MPS 71343
2002 11 23.34965 03 43 51.55 +17 55 20.3 19.1 R 644 – Palomar Mountain/NEAT MPS 71343
2002 12 05.23298 03 32 55.26 +17 04 36.2 20.4   704 – Lincoln Laboratory ETS, New Mexico MPS 71343
2002 12 05.24825 03 32 54.42 +17 04 32.8 20.1   704 – Lincoln Laboratory ETS, New Mexico MPS 71343
2002 12 05.26346 03 32 53.61 +17 04 29.8 20.0   704 – Lincoln Laboratory ETS, New Mexico MPS 71343
2002 12 05.27879 03 32 52.77 +17 04 26.3 20.0   704 – Lincoln Laboratory ETS, New Mexico MPS 71343
2002 12 10.25565 03 28 53.00 +16 45 32.7 20.7   644 – Palomar Mountain/NEAT MPS 71343
2002 12 10.27810 03 28 51.94 +16 45 28.0 20.0   644 – Palomar Mountain/NEAT MPS 71343
2002 12 10.30299 03 28 50.76 +16 45 22.6 20.0   644 – Palomar Mountain/NEAT MPS 71343
2004 02 18.47361 10 59 43.51 +00 19 39.1 20.2   608 – Haleakala-AMOS MPS 98702
2004 02 18.48411 10 59 43.01 +00 19 42.1 19.9   608 – Haleakala-AMOS MPS 98702
2004 02 18.49505 10 59 42.46 +00 19 45.3 20.1   608 – Haleakala-AMOS MPS 98702
2004 02 19.30708 10 59 04.46 +00 23 36.6 18.5   704 – Lincoln Laboratory ETS, New Mexico MPS 98702
2004 02 19.32208 10 59 03.77 +00 23 41.2 18.8   704 – Lincoln Laboratory ETS, New Mexico MPS 98702
2004 02 19.33672 10 59 03.03 +00 23 45.2 18.8   704 – Lincoln Laboratory ETS, New Mexico MPS 98702
2004 02 19.34988 10 59 02.40 +00 23 49.1 18.8   704 – Lincoln Laboratory ETS, New Mexico MPS 98702
2004 02 19.36243 10 59 01.81 +00 23 53.4 19.3   704 – Lincoln Laboratory ETS, New Mexico MPS 98702
2004 02 26.34238 10 53 15.47 +01 00 47.1 18.9   704 – Lincoln Laboratory ETS, New Mexico MPS 110202
2004 02 26.35435 10 53 14.85 +01 00 51.2 19.3   704 – Lincoln Laboratory ETS, New Mexico MPS 110202
2004 02 26.36683 10 53 14.20 +01 00 55.6 19.3   704 – Lincoln Laboratory ETS, New Mexico MPS 110202
2004 02 26.37909 10 53 13.49 +01 00 59.3 19.0   704 – Lincoln Laboratory ETS, New Mexico MPS 110202
2004 02 26.39095 10 53 12.95 +01 01 03.7 19.1   704 – Lincoln Laboratory ETS, New Mexico MPS 110202
2004 03 10.26475 10 42 05.63 +02 20 31.2 18.9   644 – Palomar Mountain/NEAT MPS 101100
2004 03 10.29392 10 42 04.09 +02 20 42.4 18.9   644 – Palomar Mountain/NEAT MPS 101100
2004 03 10.32574 10 42 02.41 +02 20 54.5 18.6   644 – Palomar Mountain/NEAT MPS 101100
2004 03 16.22676 10 37 15.88 +02 58 45.7 19.0   704 – Lincoln Laboratory ETS, New Mexico MPS 101100
2004 03 16.23768 10 37 15.27 +02 58 49.0 19.3   704 – Lincoln Laboratory ETS, New Mexico MPS 101100
2004 03 16.25041 10 37 14.70 +02 58 54.1 19.3   704 – Lincoln Laboratory ETS, New Mexico MPS 101100
2004 03 16.26406 10 37 14.02 +02 58 59.1 19.3   704 – Lincoln Laboratory ETS, New Mexico MPS 101100
2004 03 16.27547 10 37 13.49 +02 59 03.1 19.5   704 – Lincoln Laboratory ETS, New Mexico MPS 101100
2004 03 18.29385 10 35 41.73 +03 11 48.0 18.9   704 – Lincoln Laboratory ETS, New Mexico MPS 101100
2004 03 18.30548 10 35 41.14 +03 11 52.1 19.1   704 – Lincoln Laboratory ETS, New Mexico MPS 101100
2004 03 18.31720 10 35 40.62 +03 11 56.7 19.1   704 – Lincoln Laboratory ETS, New Mexico MPS 101100
2004 03 18.34066 10 35 39.58 +03 12 05.7 19.6   704 – Lincoln Laboratory ETS, New Mexico MPS 101100
2004 03 20.22848 10 34 17.66 +03 23 48.8 19.0   704 – Lincoln Laboratory ETS, New Mexico MPS 102075
2004 03 20.22868 10 34 17.74 +03 23 48.8 18.9   704 – Lincoln Laboratory ETS, New Mexico MPS 102075
2004 03 20.23998 10 34 17.21 +03 23 53.5 19.3   704 – Lincoln Laboratory ETS, New Mexico MPS 102075
2004 03 20.24018 10 34 17.22 +03 23 53.4 19.4   704 – Lincoln Laboratory ETS, New Mexico MPS 102075
2004 03 20.25242 10 34 16.61 +03 23 57.6 19.1   704 – Lincoln Laboratory ETS, New Mexico MPS 102075
2004 03 20.25261 10 34 16.65 +03 23 57.9 18.9   704 – Lincoln Laboratory ETS, New Mexico MPS 102075
2004 03 20.26379 10 34 16.11 +03 24 02.6 19.6   704 – Lincoln Laboratory ETS, New Mexico MPS 102075
2004 03 20.26399 10 34 16.18 +03 24 02.0 19.4   704 – Lincoln Laboratory ETS, New Mexico MPS 102075
2004 03 20.27569 10 34 15.58 +03 24 06.0 19.5   704 – Lincoln Laboratory ETS, New Mexico MPS 102075
2004 03 20.27589 10 34 15.61 +03 24 06.6 19.4   704 – Lincoln Laboratory ETS, New Mexico MPS 102075
2004 03 20.29343 10 34 14.76 +03 24 12.8 19.1   704 – Lincoln Laboratory ETS, New Mexico MPS 102075
2004 03 20.31636 10 34 13.84 +03 24 21.1 19.1   704 – Lincoln Laboratory ETS, New Mexico MPS 102075
2004 03 20.32764 10 34 13.32 +03 24 25.6 19.4   704 – Lincoln Laboratory ETS, New Mexico MPS 102075
2004 03 20.33970 10 34 12.79 +03 24 30.0 19.1   704 – Lincoln Laboratory ETS, New Mexico MPS 102075
2004 03 22.23406 10 32 54.67 +03 35 59.8 18.7   704 – Lincoln Laboratory ETS, New Mexico MPS 102075
2004 03 22.25665 10 32 53.78 +03 36 07.4 18.5   704 – Lincoln Laboratory ETS, New Mexico MPS 102075
2004 03 22.26888 10 32 53.33 +03 36 14.5 19.3   704 – Lincoln Laboratory ETS, New Mexico MPS 102075
2004 03 22.27994 10 32 52.84 +03 36 18.2 19.1   704 – Lincoln Laboratory ETS, New Mexico MPS 102075
2004 04 14.22409 10 23 48.62 +05 24 05.7 19.5 R 699 – Lowell Observatory-LONEOS MPS 104210
2004 04 14.24433 10 23 48.49 +05 24 10.0   699 – Lowell Observatory-LONEOS MPS 104210
2004 04 14.26461 10 23 48.40 +05 24 14.9   699 – Lowell Observatory-LONEOS MPS 104210
2004 04 14.28483 10 23 48.14 +05 24 18.1   699 – Lowell Observatory-LONEOS MPS 104210
2005 05 15.43248 20 10 55.42 -15 34 35.1 19.9 R G96 – Mt. Lemmon Survey MPS 135274
2005 05 15.44041 20 10 55.63 -15 34 33.3 19.9 R G96 – Mt. Lemmon Survey MPS 135274
2005 05 15.44926 20 10 55.86 -15 34 31.2 19.5 R G96 – Mt. Lemmon Survey MPS 135274
2005 05 15.45726 20 10 56.03 -15 34 29.4 19.1 R G96 – Mt. Lemmon Survey MPS 135274
2005 06 09.41664 20 13 28.34 -14 23 16.2 20.0 V 691 – Steward Observatory, Kitt Peak-Spacewatch MPS 136412
2005 06 09.43406 20 13 28.04 -14 23 14.2 20.0 V 691 – Steward Observatory, Kitt Peak-Spacewatch MPS 136412
2005 06 09.45149 20 13 27.73 -14 23 12.6 19.8 V 691 – Steward Observatory, Kitt Peak-Spacewatch MPS 136412
